Simultaneous Nadir Overpasses (SNOs) Predictions

Prediction of SNOs between GOES-17 and METOP-C Satellite Orbit:

Table of predicted SNOs for the next 14.0 days since TLE Epoch: 1/15/2022
Index Date Time (GOES-17) GOES-17 Lat,Lon METOP-C Lat,Lon Distance(km) Time Diff (sec)
1 01/15/2022 06:35:42 0.01,-137.20 0.17,-136.43 86.68 80
2 01/16/2022 18:57:14 -0.01,-137.25 0.84,-140.99 426.78 80
3 01/17/2022 18:33:55 -0.01,-137.28 -0.32,-136.01 145.05 80
4 01/19/2022 06:55:37 0.01,-137.30 -0.72,-140.60 376.31 80
5 01/20/2022 06:32:17 0.00,-137.32 0.38,-135.61 195.20 80
6 01/21/2022 18:53:48 0.01,-137.36 0.61,-140.17 318.96 80
7 01/22/2022 18:30:29 0.01,-137.38 -0.49,-135.17 252.38 80
8 01/24/2022 06:52:10 -0.01,-137.40 -0.56,-139.77 269.91 80
9 01/25/2022 06:28:52 -0.01,-137.42 0.61,-134.78 300.73 80
10 01/26/2022 18:47:42 0.01,-137.44 0.44,-139.33 215.34 80
11 01/27/2022 18:29:44 -0.01,-137.45 -0.72,-134.35 354.64 80
